Weather History for Starkville, MS

Change the Weather History Date:

Thursday, April 24, 2014

  Actual Average Record
Temperature  
Mean Temperature 63 °F -  
Max Temperature 82 °F 76 °F 82 °F (2014)
Min Temperature 44 °F 52 °F 35 °F (2012)
Degree Days  
Heating Degree Days 2    
Growing Degree Days 13 (Base 50)    
Moisture  
Dew Point 52 °F    
Average Humidity 67    
Maximum Humidity 100    
Minimum Humidity 37    
Precipitation  
Precipitation 0.32 in - - ()
Sea Level Pressure  
Sea Level Pressure 29.89 in    
Wind  
Wind Speed 3 mph (South)    
Max Wind Speed 13 mph    
Max Gust Speed 21 mph    
Visibility 10 miles    
Events Rain , Thunderstorm    
Averages and records for this station are not official NWS values.
T = Trace of Precipitation, MM = Missing Value Source: NWS Daily Summary

Daily Weather History Graph

Daily Weather History Graph

Search for Another Location

Airport:

Trip Planner

Search our weather history database for the weather conditions in past years. The results will help you decide how hot, cold, wet, or windy it might be!

Date:

Astronomy

Apr. 24, 2014 Rise Set
Actual Time 6:14 AM CDT 7:32 PM CDT
Civil Twilight 5:48 AM CDT 7:59 PM CDT
Nautical Twilight 5:17 AM CDT 8:30 PM CDT
Astronomical Twilight 4:45 AM CDT 9:02 PM CDT
Moon 3:10 AM CDT (4/24) 3:02 PM CDT (4/24)
Length of Visible Light 14h 10m
Length of Day
13h 18m
Waning Crescent, 24% of the Moon is Illuminated
Apr 24
Waning Crescent
Apr 29
New
May 6
First Quarter
May 14
Full
May 21
Last Quarter

Hourly Weather History & Observations

Time (CDT) Temp. Heat Index Dew Point Humidity Pressure Visibility Wind Dir Wind Speed Gust Speed Precip Events Conditions
12:15 AM 51.8 °F - 48.2 °F 88% 29.94 in 10.0 mi Calm Calm - N/A   Clear
12:35 AM 50.0 °F - 46.4 °F 87% 29.94 in 10.0 mi Calm Calm - N/A   Clear
12:55 AM 50.0 °F - 46.4 °F 87% 29.94 in 10.0 mi Calm Calm - N/A   Clear
1:15 AM 50.0 °F - 46.4 °F 87% 29.94 in 10.0 mi Calm Calm - N/A   Clear
1:35 AM 50.0 °F - 46.4 °F 87% 29.94 in 10.0 mi ENE 3.5 mph - N/A   Clear
1:55 AM 50.0 °F - 46.4 °F 87% 29.93 in 10.0 mi Calm Calm - N/A   Clear
2:15 AM 50.0 °F - 46.4 °F 87% 29.93 in 10.0 mi Calm Calm - N/A   Clear
2:35 AM 50.0 °F - 46.4 °F 87% 29.93 in 10.0 mi Calm Calm - N/A   Clear
2:55 AM 48.2 °F - 44.6 °F 87% 29.93 in 10.0 mi Calm Calm - N/A   Clear
3:15 AM 46.4 °F - 46.4 °F 100% 29.93 in 10.0 mi Calm Calm - N/A   Clear
3:55 AM 46.4 °F - 44.6 °F 93% 29.94 in 10.0 mi Calm Calm - N/A   Clear
4:15 AM 46.4 °F - 44.6 °F 93% 29.93 in 10.0 mi Calm Calm - N/A   Clear
4:35 AM 46.4 °F - 44.6 °F 93% 29.93 in 10.0 mi Calm Calm - N/A   Clear
4:55 AM 46.4 °F - 44.6 °F 93% 29.93 in 10.0 mi Calm Calm - N/A   Clear
5:15 AM 46.4 °F - 44.6 °F 93% 29.93 in 10.0 mi Calm Calm - N/A   Clear
5:35 AM 46.4 °F - 44.6 °F 93% 29.94 in 10.0 mi Calm Calm - N/A   Clear
5:55 AM 44.6 °F - 44.6 °F 100% 29.94 in 10.0 mi Calm Calm - N/A   Clear
6:15 AM 46.4 °F - 44.6 °F 93% 29.94 in 10.0 mi Calm Calm - N/A   Clear
6:35 AM 46.4 °F - 44.6 °F 93% 29.95 in 10.0 mi Calm Calm - N/A   Clear
6:55 AM 48.2 °F - 46.4 °F 93% 29.96 in 10.0 mi Calm Calm - N/A   Scattered Clouds
7:15 AM 50.0 °F - 48.2 °F 94% 29.97 in 10.0 mi Calm Calm - N/A   Scattered Clouds
7:35 AM 51.8 °F - 50.0 °F 94% 29.97 in 10.0 mi Calm Calm - N/A   Scattered Clouds
7:55 AM 55.4 °F - 50.0 °F 82% 29.97 in 10.0 mi Calm Calm - N/A   Scattered Clouds
8:15 AM 57.2 °F - 50.0 °F 77% 29.97 in 10.0 mi SSE 4.6 mph - N/A   Clear
8:35 AM 59.0 °F - 50.0 °F 72% 29.98 in 10.0 mi SSE 5.8 mph - N/A   Clear
8:55 AM 62.6 °F - 50.0 °F 63% 29.97 in 10.0 mi SSE 6.9 mph - N/A   Clear
9:15 AM 64.4 °F - 48.2 °F 56% 29.98 in 10.0 mi SSE 8.1 mph - N/A   Clear
9:35 AM 66.2 °F - 48.2 °F 52% 29.98 in 10.0 mi SE 8.1 mph - N/A   Clear
9:55 AM 68.0 °F - 50.0 °F 52% 29.97 in 10.0 mi SSE 6.9 mph - N/A   Clear
10:15 AM 69.8 °F - 50.0 °F 49% 29.97 in 10.0 mi SSE 6.9 mph - N/A   Clear
10:35 AM 71.6 °F - 50.0 °F 46% 29.96 in 10.0 mi SSE 6.9 mph - N/A   Clear
10:55 AM 73.4 °F - 50.0 °F 44% 29.96 in 10.0 mi SE 9.2 mph - N/A   Clear
11:15 AM 73.4 °F - 51.8 °F 47% 29.96 in 10.0 mi South 8.1 mph - N/A   Clear
11:35 AM 77.0 °F - 53.6 °F 44% 29.95 in 10.0 mi SSW 6.9 mph - N/A   Clear
11:55 AM 77.0 °F - 55.4 °F 47% 29.94 in 10.0 mi SE 5.8 mph - N/A   Clear
12:15 PM 78.8 °F - 55.4 °F 44% 29.92 in 10.0 mi SSE 6.9 mph - N/A   Clear
12:35 PM 80.6 °F 80.5 °F 55.4 °F 42% 29.91 in 10.0 mi SSE 9.2 mph - N/A   Scattered Clouds
12:55 PM 78.8 °F - 53.6 °F 42% 29.90 in 10.0 mi South 10.4 mph - N/A   Scattered Clouds
1:15 PM 80.6 °F 80.3 °F 53.6 °F 39% 29.90 in 10.0 mi SSW 10.4 mph 16.1 mph N/A   Scattered Clouds
1:55 PM 80.6 °F 80.3 °F 53.6 °F 39% 29.90 in 10.0 mi SSE 8.1 mph 16.1 mph N/A   Scattered Clouds
2:15 PM 80.6 °F 80.3 °F 53.6 °F 39% 29.89 in 10.0 mi South 6.9 mph 19.6 mph N/A   Mostly Cloudy
2:35 PM 80.6 °F 80.3 °F 53.6 °F 39% 29.88 in 10.0 mi SSW 8.1 mph 16.1 mph N/A   Scattered Clouds
2:55 PM 80.6 °F 80.3 °F 53.6 °F 39% 29.88 in 10.0 mi SSW 4.6 mph - N/A   Scattered Clouds
3:15 PM 82.4 °F 81.4 °F 53.6 °F 37% 29.88 in 10.0 mi South 6.9 mph - N/A   Mostly Cloudy
3:35 PM 78.8 °F - 53.6 °F 42% 29.85 in 10.0 mi South 8.1 mph - N/A   Mostly Cloudy
3:55 PM 80.6 °F 80.3 °F 53.6 °F 39% 29.84 in 10.0 mi SSW 8.1 mph - N/A   Scattered Clouds
4:15 PM 80.6 °F 80.5 °F 55.4 °F 42% 29.82 in 10.0 mi South 8.1 mph - N/A   Scattered Clouds
4:35 PM 80.6 °F 80.5 °F 55.4 °F 42% 29.81 in 10.0 mi South 8.1 mph - N/A   Clear
4:55 PM 80.6 °F 80.3 °F 53.6 °F 39% 29.80 in 10.0 mi South 11.5 mph 17.3 mph N/A   Clear
5:15 PM 80.6 °F 80.3 °F 53.6 °F 39% 29.80 in 10.0 mi South 10.4 mph 20.7 mph N/A   Clear
5:35 PM 80.6 °F 80.3 °F 53.6 °F 39% 29.80 in 10.0 mi South 4.6 mph - N/A   Clear
5:55 PM 80.6 °F 80.3 °F 53.6 °F 39% 29.80 in 10.0 mi South 12.7 mph 17.3 mph N/A   Clear
6:15 PM 78.8 °F - 55.4 °F 44% 29.81 in 10.0 mi SSW 6.9 mph - N/A   Clear
6:35 PM 77.0 °F - 55.4 °F 47% 29.81 in 10.0 mi SSW 4.6 mph - N/A   Clear
6:55 PM 77.0 °F - 55.4 °F 47% 29.81 in 10.0 mi SSW 3.5 mph - N/A   Clear
7:15 PM 75.2 °F - 55.4 °F 50% 29.80 in 10.0 mi SSE 3.5 mph - N/A   Clear
7:35 PM 71.6 °F - 59.0 °F 64% 29.81 in 10.0 mi Calm Calm - N/A   Clear
7:55 PM 69.8 °F - 59.0 °F 68% 29.79 in 10.0 mi SSE 4.6 mph - N/A   Clear
8:15 PM 71.6 °F - 57.2 °F 60% 29.79 in 10.0 mi SE 4.6 mph - N/A Thunderstorm Scattered Clouds
8:35 PM 71.6 °F - 57.2 °F 60% 29.80 in 10.0 mi SSE 3.5 mph - N/A Thunderstorm Overcast
8:55 PM 73.4 °F - 57.2 °F 57% 29.81 in 10.0 mi SSE 6.9 mph - N/A Thunderstorm Thunderstorm
9:15 PM 71.6 °F - 59.0 °F 64% 29.79 in 10.0 mi NE 9.2 mph - N/A Rain , Thunderstorm Light Thunderstorms and Rain
9:35 PM 69.8 °F - 59.0 °F 68% 29.80 in 10.0 mi SSE 4.6 mph - N/A Rain , Thunderstorm Light Thunderstorms and Rain
9:55 PM 69.8 °F - 59.0 °F 68% 29.81 in 10.0 mi SSE 5.8 mph - N/A Rain , Thunderstorm Light Thunderstorms and Rain
10:15 PM 68.0 °F - 60.8 °F 78% 29.87 in 10.0 mi SSW 11.5 mph 17.3 mph N/A Rain , Thunderstorm Light Thunderstorms and Rain
10:35 PM 64.4 °F - 62.6 °F 94% 29.84 in 4.0 mi South 9.2 mph 17.3 mph 0.17 in Rain , Thunderstorm Heavy Thunderstorms and Rain
10:55 PM 64.4 °F - 62.6 °F 94% 29.86 in 5.0 mi South 6.9 mph - 0.31 in Rain , Thunderstorm Rain
11:15 PM 62.6 °F - 62.6 °F 100% 29.85 in 7.0 mi South 6.9 mph - 0.01 in Rain , Thunderstorm Light Thunderstorms and Rain
11:35 PM 62.6 °F - 62.6 °F 100% 29.84 in 7.0 mi South 4.6 mph - 0.01 in   Mostly Cloudy
11:55 PM 62.6 °F - 62.6 °F 100% 29.84 in 7.0 mi South 5.8 mph - 0.01 in Thunderstorm Scattered Clouds